ARIANE 44LP DEB, 25539

Orbit data source: Space-Track

ARIANE 44LP DEB, 25539 is space debris in HEO originally from a launch on Sun, 11 Dec 1988 UTC launched from the French Guiana (FRGUI). Debris objects in space refer to the collection of defunct objects orbiting the Earth. Examples of debris include non-operational satellites, rocket bodies, and fragments generated from explosions, collisions, or faulty payload assembly.

Loading next visibility...
Identifier
25539, 1988-109F
Orbit
HEO
Country
Flag of FRFR
Related business
Manufacturer
Unknown
Mission
Spacecraft
Bus & Motor
Unknown
Mass
Unknown
Launch date (UTC)
1988-12-11 (37 years ago)
Launch vehicle
Unknown
Launch site
French Guiana (FRGUI)
Object type
Payload
Rocket body
Debris
Shape & HBR
Unknown shape, 0.4 m
Radar Cross Section
Medium (>0.1 m² and <1 m²)

Expand to show TLE details & history
Last TLE update: 4 days ago

TLE from 4 days ago
0 ARIANE 44LP DEB
1 25539U 88109F   26032.08431158  .00001571  00000-0  42352-2 0  9995
2 25539   7.1958  22.4222 6817216 108.4719 332.5154  2.78160088257244
Epoch: 2026-02-01T02:01Z
TLE epoch observation values (Epoch: 2026-02-01T02:01:24.520Z)
Latitude
-0°
Longitude
-139.0659°
Altitude
8,130.532 km
Speed
6.023 km/s
True Right ascension
01h 30m 20s
True Declination
0° 00' 00"
Sunlit
Object was in daylight at epoch
Visualization orbit readout
Latitude
Unknown
Longitude
Unknown
Altitude
Unknown
Speed
Unknown
Apparent Right ascension
Unknown
Apparent Declination
Unknown
Sunlit
N/A
Visualization observer readout
Local Sidereal Time
03:04:10
Azimuth
Unknown
Elevation
Unknown
Doppler factor
Unknown
Orbital elements
Apogee altitude
29,546.929 km
Perigee altitude
420.951 km
Semi-major axis
21,362.077 km
Eccentricity
0.68172
Inclination
7.1958°
RAAN
22.4222°
Arg. of periapsis
108.4719°
True anomaly
251.85467°
Mean anomaly
332.5154°
Eccentric anomaly
298.04071°
Mean motion
0.69515 °/min
Orbital period
517.87 mins
BSTAR
0.0042352
Loading maneuver chart data...
Computing Atmospheric mass density...
Loading historical data...
Loading historical data...
Loading historical data...
Loading historical data...
Loading historical data...
Loading historical data...
Loading historical data...

Documentation

Showing up to 5 results
|